[[{"header":{"parameterUnit":"m.s-1","parameterCategory":1,"la1":30.2991,"la2":30.254,"lo1":-89.0895,"lo2":-89.0444,"dy":0.0017,"dx":0.0017,"nx":28,"ny":28,"refTime":"2024-04-17T09:00:00:Z","depth":0,"parameterNumber":2,"parameterNumberName":"U-component_of_WINDS"},"data":[0,0,0,0,0,0,0,0,0,0,0,0,0,0,0,0,0,0,0,0,0,0,0,0,0,0,0,0,0,0,0,0,0,0,0,0,0,0,0,0,0,0,0,0,0,0,0,0,0,0,0,0,0,0,0,0,0,0,0.1905,0.1905,0,0.1884,0.1884,0.1883,0.186,0.186,0.186,0.1859,0.1837,0.1837,0.1836,0,0,0,0,0,0,0,0,0,0,0,0,0,0.1925,0.1925,0.1905,0.1905,0.1905,0.1884,0.1884,0.1883,0.186,0.186,0.1859,0.1859,0.1837,0.1837,0.1836,0,0,0,0,0,0,0,0,0,0,0,0,0,0.1911,0.1925,0.1905,0.1891,0.1889,0.1884,0.1884,0.1883,0.186,0.186,0.1859,0.1859,0.1837,0.1837,0.1836,0.1843,0,0,0.1835,0.1835,0,0,0,0,0,0,0,0,0.1912,0.1911,0.1893,0.1892,0.189,0.1874,0.1882,0.187,0.186,0.1871,0.1859,0.1859,0.185,0.1848,0.1845,0.1842,0.1841,0.1835,0.1835,0.1834,0.1834,0,0,0,0,0,0,0,0.1913,0.1912,0.1897,0.1893,0.1891,0.1885,0.1882,0.188,0.1864,0.187,0.1869,0.1866,0.1849,0.1846,0.1845,0.1841,0.1835,0.1835,0.1834,0.1834,0.1841,0.1841,0,0,0,0,0,0,0.1917,0.1912,0.1898,0.1896,0.19,0.1885,0.1882,0.188,0.1863,0.1861,0.1867,0.1865,0.1847,0.1845,0.1844,0.185,0.1834,0.1834,0.1834,0.1841,0.1841,0.1842,0,0,0,0,0,0,0.1917,0.1915,0.1898,0.1904,0.1901,0.1885,0.1883,0.188,0.1877,0.1861,0.1858,0.1867,0.1846,0.1844,0.1843,0.1849,0.1834,0.1833,0.184,0.1841,0.1841,0.1863,0,0,0,0,0,0,0.1918,0.1916,0.1919,0.1904,0.1901,0.1899,0.1883,0.188,0.1876,0.1874,0.186,0.1857,0.1846,0.1844,0.1843,0.1848,0.1833,0.1839,0.184,0.1841,0.1862,0.1864,0.1866,0,0,0,0,0,0.1919,0.1926,0.1919,0.1917,0.1904,0.1899,0.1897,0.1884,0.1877,0.1879,0.1868,0.1858,0.1848,0.1844,0.1843,0.1848,0.1839,0.184,0.1841,0.1861,0.1864,0.1866,0,0,0,0,0,0,0.1942,0.1924,0.1916,0.1919,0.1911,0.1895,0.1898,0.1888,0.1882,0.188,0.1864,0.1861,0.1861,0.1854,0.185,0.1853,0.1842,0.1843,0.1857,0.186,0.1863,0.1864,0.1833,0,0,0,0,0,0.1948,0.1945,0.1929,0.1934,0.193,0.1915,0.1912,0.1902,0.1893,0.189,0.1879,0.187,0.1865,0.1862,0.1857,0.186,0.1856,0.1863,0.1865,0.1867,0.1868,0.1868,0.187,0.1845,0.1845,0.1845,0,0,0.1959,0.1949,0.1949,0.1938,0.1931,0.1928,0.1912,0.191,0.1908,0.1889,0.1887,0.1879,0.1868,0.1869,0.1869,0.1863,0.1874,0.1869,0.187,0.187,0.1869,0.1872,0.1874,0.1846,0.1845,0.1845,0,0,0.1979,0.1971,0.1973,0.1966,0.1954,0.1944,0.1944,0.193,0.1924,0.1922,0.1907,0.1904,0.1896,0.1888,0.1883,0.1898,0.1887,0.1896,0.1909,0.1909,0.1911,0.1913,0.1917,0.1919,0.1897,0.1897,0.1897,0,0.1995,0.199,0.1975,0.1974,0.1969,0.1952,0.1953,0.1947,0.1934,0.1931,0.1924,0.1913,0.1904,0.1902,0.1906,0.1903,0.1902,0.1898,0.1912,0.1913,0.1915,0.1919,0.1921,0.1898,0.1898,0.1898,0.1898,0,0.2009,0.2007,0.2009,0.1997,0.1993,0.1993,0.1977,0.1975,0.1965,0.1955,0.1952,0.1941,0.1932,0.1931,0.1922,0.1927,0.1924,0.1915,0.1904,0.1919,0.1922,0.1923,0.19,0.19,0.1899,0.1899,0,0,0.2044,0.2023,0.2024,0.2018,0.2003,0.2,0.1999,0.199,0.1987,0.1979,0.1977,0.1969,0.1961,0.1955,0.1944,0.1945,0.1955,0.1935,0.1935,0.1939,0.196,0.1966,0.1968,0.1948,0.1948,0.1949,0.196,0,0.2061,0.2057,0.2043,0.2044,0.204,0.2023,0.2021,0.2012,0.2002,0.1997,0.1986,0.1981,0.197,0.1967,0.1966,0.1954,0.1959,0.1953,0.1945,0.1945,0.1948,0.197,0.1977,0.1989,0.1961,0.1962,0.1962,0,0.208,0.2072,0.2072,0.2056,0.2054,0.2053,0.2043,0.2039,0.2027,0.202,0.2013,0.2001,0.1997,0.1987,0.1981,0.1977,0.1973,0.1967,0.1967,0.1966,0.1954,0.1969,0.1992,0.1994,0.1964,0.1964,0.1964,0,0.2104,0.2093,0.2092,0.2087,0.2069,0.2068,0.206,0.2048,0.2043,0.2034,0.2031,0.2022,0.2017,0.2009,0.1995,0.1989,0.199,0.1979,0.1984,0.1984,0.1985,0.1985,0.2008,0.1983,0.1983,0.1983,0.1983,0,0.2124,0.2124,0.2102,0.2101,0.2101,0.2084,0.2084,0.2075,0.2064,0.206,0.2044,0.2041,0.2022,0.2016,0.2005,0.2001,0.1999,0.1993,0.1989,0.1994,0.1995,0.1991,0.1989,0.1983,0.1983,0.1983,0.1983,0,0.2151,0.2136,0.2133,0.2116,0.2111,0.2112,0.2096,0.2094,0.2083,0.2078,0.2076,0.2058,0.2051,0.2035,0.2023,0.2015,0.2014,0.2009,0.2018,0.2016,0.2021,0.2021,0.2042,0.2044,0.2019,0.2019,0.2019,0,0.2164,0.2164,0.2146,0.2143,0.2135,0.213,0.2124,0.2107,0.2102,0.2088,0.2087,0.2078,0.207,0.2058,0.2044,0.2035,0.2029,0.2037,0.2027,0.2031,0.2028,0.2028,0.2027,0.2039,0.2039,0.204,0.204,0,0.2189,0.2182,0.2175,0.2165,0.2159,0.215,0.2141,0.2138,0.2119,0.2114,0.2106,0.2099,0.2087,0.2078,0.2066,0.2057,0.2045,0.2043,0.2043,0.2048,0.2053,0.2049,0.2024,0.2043,0.2042,0.2042,0.2042,0.2042,0.2209,0.2208,0.2195,0.2187,0.2178,0.2169,0.2166,0.2154,0.2147,0.2135,0.2125,0.2118,0.2104,0.2087,0.2079,0.2072,0.2066,0.2067,0.2067,0.2068,0.2069,0.2054,0.207,0.207,0.207,0.2069,0.2069,0,0.2233,0.2223,0.2216,0.2203,0.2197,0.2186,0.2174,0.217,0.2163,0.2152,0.2144,0.2133,0.2124,0.2109,0.2098,0.2095,0.2089,0.2093,0.2093,0.2091,0.2075,0.2076,0.2098,0.2098,0.2098,0.2098,0.2098,0.2098,0.2244,0.2241,0.2231,0.2223,0.2213,0.2205,0.22,0.2191,0.2182,0.2171,0.2163,0.2153,0.2139,0.2127,0.2118,0.2113,0.211,0.2115,0.2109,0.2095,0.2092,0.2089,0.209,0.2115,0.2115,0.2125,0.2125,0.2125]},{"header":{"parameterUnit":"m.s-1","parameterCategory":1,"la1":30.2991,"la2":30.254,"lo1":-89.0895,"lo2":-89.0444,"dy":0.0017,"dx":0.0017,"nx":28,"ny":28,"refTime":"2024-04-17T09:00:00:Z","depth":0,"parameterNumber":3,"parameterNumberName":"V-component_of_WINDS"},"data":[0,0,0,0,0,0,0,0,0,0,0,0,0,0,0,0,0,0,0,0,0,0,0,0,0,0,0,0,0,0,0,0,0,0,0,0,0,0,0,0,0,0,0,0,0,0,0,0,0,0,0,0,0,0,0,0,0,0,3.8795,3.8795,0,3.881,3.8811,3.8811,3.8755,3.8753,3.8752,3.875,3.8765,3.8767,3.8769,0,0,0,0,0,0,0,0,0,0,0,0,0,3.8715,3.8717,3.8795,3.8795,3.8795,3.881,3.8811,3.8811,3.8755,3.8753,3.8751,3.8749,3.8764,3.8767,3.8769,0,0,0,0,0,0,0,0,0,0,0,0,0,3.8742,3.8717,3.8795,3.8769,3.8767,3.881,3.8811,3.8811,3.8756,3.8753,3.8751,3.8748,3.8764,3.8767,3.8769,3.8837,0,0,3.8778,3.878,0,0,0,0,0,0,0,0,3.8741,3.8745,3.8773,3.8771,3.8769,3.8778,3.8788,3.882,3.8756,3.876,3.875,3.8747,3.8771,3.8774,3.8782,3.8838,3.8839,3.8779,3.878,3.8782,3.8782,0,0,0,0,0,0,0,3.8739,3.8744,3.8801,3.8773,3.8771,3.8757,3.8758,3.8794,3.878,3.876,3.8756,3.8758,3.877,3.8779,3.8782,3.8839,3.8779,3.8781,3.8783,3.8784,3.8951,3.8953,0,0,0,0,0,0,3.874,3.8743,3.88,3.8801,3.8748,3.876,3.8761,3.8778,3.8779,3.8777,3.876,3.8756,3.8775,3.8779,3.8782,3.8862,3.8782,3.8784,3.8786,3.8948,3.8951,3.8954,0,0,0,0,0,0,3.8739,3.8746,3.88,3.8771,3.8777,3.8764,3.8783,3.8779,3.8789,3.878,3.8777,3.8773,3.8774,3.8778,3.8824,3.8861,3.8786,3.8788,3.8945,3.8949,3.8953,3.9021,0,0,0,0,0,0,3.8737,3.8746,3.8772,3.8772,3.8779,3.8842,3.8785,3.8781,3.8794,3.8788,3.879,3.8788,3.8772,3.882,3.8827,3.8864,3.8791,3.8942,3.8947,3.8952,3.9016,3.9027,3.9037,0,0,0,0,0,3.8734,3.8791,3.8774,3.8781,3.8811,3.8844,3.8848,3.8828,3.8797,3.8823,3.8817,3.8788,3.8856,3.8825,3.8832,3.8871,3.8939,3.8945,3.8951,3.9011,3.9025,3.9037,0,0,0,0,0,0,3.8795,3.879,3.8771,3.883,3.8838,3.8835,3.8867,3.8844,3.8861,3.8854,3.8829,3.883,3.888,3.888,3.8846,3.8936,3.8892,3.89,3.8935,3.8948,3.8959,3.8958,3.8793,0,0,0,0,0,3.8816,3.8844,3.8837,3.8889,3.8894,3.888,3.8894,3.8878,3.8885,3.8888,3.8886,3.8894,3.8916,3.8932,3.8953,3.9015,3.9014,3.9045,3.9056,3.9064,3.9072,3.9104,3.9117,3.8974,3.8974,3.8974,0,0,3.8858,3.8858,3.8878,3.8902,3.8906,3.8935,3.8884,3.8916,3.8937,3.8893,3.8937,3.8935,3.8942,3.8996,3.902,3.8998,3.9111,3.9072,3.9079,3.9082,3.9112,3.9125,3.9137,3.8978,3.8977,3.8977,0,0,3.8949,3.8953,3.8996,3.9002,3.9009,3.8999,3.901,3.901,3.9007,3.9051,3.9018,3.9042,3.9082,3.9088,3.9097,3.919,3.9164,3.9197,3.9253,3.9285,3.9296,3.9306,3.9339,3.9351,3.9204,3.9205,3.9205,0,3.9001,3.9044,3.9021,3.9057,3.9068,3.9029,3.9072,3.9079,3.9093,3.9101,3.9076,3.9125,3.9127,3.9182,3.9205,3.9213,3.9223,3.9197,3.9297,3.9306,3.9315,3.9346,3.9359,3.9209,3.9208,3.9208,3.9207,0,3.9106,3.9136,3.917,3.9185,3.92,3.9239,3.9222,3.924,3.9222,3.9215,3.9259,3.926,3.9279,3.9291,3.9274,3.9344,3.933,3.9301,3.9256,3.9333,3.9362,3.9374,3.9214,3.9213,3.9212,3.9211,0,0,3.9238,3.9239,3.9252,3.9258,3.9263,3.9285,3.9322,3.9342,3.9357,3.9368,3.9398,3.9432,3.9405,3.9415,3.9398,3.9426,3.95,3.9394,3.9394,3.9414,3.9576,3.9598,3.9612,3.9482,3.9485,3.9486,3.9575,0,3.9328,3.9391,3.9372,3.9436,3.9463,3.9426,3.9458,3.9464,3.9458,3.948,3.9473,3.9498,3.946,3.9466,3.9492,3.9486,3.9532,3.9479,3.951,3.9511,3.951,3.9627,3.965,3.9734,3.9586,3.9588,3.959,0,3.9442,3.9457,3.9524,3.9523,3.9534,3.9563,3.9579,3.96,3.9606,3.96,3.961,3.9588,3.9623,3.9578,3.9626,3.959,3.9602,3.96,3.9603,3.9605,3.9555,3.9633,3.9761,3.9773,3.9607,3.9606,3.9605,0,3.9531,3.9568,3.9612,3.9618,3.9619,3.964,3.9642,3.9645,3.9658,3.9672,3.968,3.9698,3.9707,3.9721,3.9704,3.9673,3.9755,3.9708,3.975,3.9751,3.9769,3.9768,3.9901,3.9777,3.9776,3.9776,3.9776,0,3.9634,3.9676,3.9652,3.968,3.9726,3.9702,3.9748,3.9745,3.9749,3.9774,3.9743,3.9768,3.9743,3.9766,3.9752,3.9794,3.9799,3.9794,3.979,3.9797,3.9798,3.9804,3.9798,3.9779,3.9779,3.9778,3.9777,0,3.9741,3.9727,3.9773,3.977,3.977,3.9804,3.9801,3.9826,3.9817,3.985,3.9857,3.9843,3.9867,3.9851,3.9876,3.9867,3.9922,3.9909,3.992,3.9917,3.996,3.9956,4.0101,4.0119,3.9983,3.9984,3.9986,0,3.9808,3.984,3.984,3.9855,3.9858,3.9883,3.9896,3.9874,3.9888,3.9897,3.9921,3.9943,3.9959,4.0,3.9992,4.0011,3.9999,4.0048,4.0001,4.0007,3.9999,3.9998,4.0001,4.0058,4.006,4.0061,4.0062,0,3.9928,3.9919,3.9939,3.9957,3.9973,3.9985,3.9995,4.0009,3.9987,4.0005,4.003,4.0042,4.0067,4.009,4.0105,4.0105,4.008,4.0077,4.0087,4.0095,4.01,4.0098,3.9946,4.0074,4.0072,4.0072,4.0071,4.007,4.0017,4.0043,4.0047,4.007,4.0075,4.0085,4.0109,4.0102,4.0123,4.0142,4.0127,4.0157,4.0161,4.0179,4.0182,4.0205,4.0184,4.02,4.0204,4.0208,4.0214,4.0096,4.0207,4.0207,4.0207,4.0206,4.0206,0,4.0136,4.0136,4.0157,4.0172,4.019,4.0165,4.0174,4.0191,4.0217,4.0223,4.024,4.0268,4.0289,4.0282,4.0301,4.032,4.0309,4.0326,4.0324,4.0325,4.0231,4.022,4.0334,4.0334,4.0334,4.0334,4.0334,4.0334,4.0199,4.0242,4.0234,4.0278,4.0278,4.0307,4.0315,4.0323,4.0328,4.0361,4.0378,4.0374,4.0375,4.0393,4.0411,4.0408,4.0417,4.0438,4.0431,4.0344,4.0331,4.0319,4.0309,4.044,4.044,4.0523,4.0523,4.0524]}]]